• In Italy
  • List of Countries
  • For 7 days
  • Water Temperature
  • Satellite Maps
  • Weather Map
  • Weather Widgets
  • user-avatar
    Login

    Hourly Weather Argeles-Gazost

    Today, 23 November, Thursday

    Time Temperature Precipitation Wind Pressure Humidity
    00:00 +4°C° 0 mm 3 mps 641 mmHg 35%
    01:00 +4°C° 0 mm 3 mps 641 mmHg 37%
    02:00 +5°C° 0 mm 3 mps 641 mmHg 38%
    03:00 +5°C° 0 mm 3 mps 641 mmHg 40%
    04:00 +5°C° 0 mm 3 mps 642 mmHg 42%
    05:00 +6°C° 0 mm 2 mps 642 mmHg 45%
    06:00 +6°C° 0 mm 2 mps 642 mmHg 49%
    07:00 +7°C° 0 mm 2 mps 643 mmHg 49%
    08:00 +8°C° 0 mm 2 mps 643 mmHg 49%
    09:00 +8°C° 0 mm 2 mps 644 mmHg 49%
    10:00 +10°C° 0 mm 2 mps 644 mmHg 45%
    11:00 +12°C° 0 mm 1 mps 645 mmHg 42%
    12:00 +14°C° 0 mm 1 mps 645 mmHg 43%
    13:00 +13°C° 0 mm 1 mps 645 mmHg 46%
    14:00 +13°C° 0 mm 1 mps 645 mmHg 50%
    15:00 +12°C° 0 mm 1 mps 645 mmHg 54%
    16:00 +11°C° 0 mm 1 mps 644 mmHg 58%
    17:00 +8°C° 0 mm 2 mps 644 mmHg 62%
    18:00 +6°C° 0 mm 2 mps 644 mmHg 66%
    19:00 +6°C° 0 mm 2 mps 644 mmHg 66%
    20:00 +6°C° 0 mm 2 mps 644 mmHg 65%
    21:00 +6°C° 0 mm 2 mps 644 mmHg 65%
    22:00 +6°C° 0 mm 2 mps 644 mmHg 65%
    23:00 +6°C° 0 mm 2 mps 644 mmHg 65%

    Tomorrow, 24 November, Friday

    Time Temperature Precipitation Wind Pressure Humidity
    00:00 +6°C° 0 mm 2 mps 644 mmHg 64%
    01:00 +6°C° 0 mm 2 mps 644 mmHg 63%
    02:00 +6°C° 0 mm 2 mps 644 mmHg 62%
    03:00 +6°C° 0 mm 2 mps 644 mmHg 61%
    04:00 +6°C° 0.1 mm 2 mps 644 mmHg 61%
    05:00 +6°C° 0.1 mm 2 mps 644 mmHg 61%
    06:00 +6°C° 0.1 mm 2 mps 644 mmHg 61%
    07:00 +6°C° 0.5 mm 2 mps 644 mmHg 64%
    08:00 +6°C° 0.5 mm 2 mps 645 mmHg 67%
    09:00 +6°C° 0.5 mm 2 mps 645 mmHg 71%
    10:00 +7°C° 0.2 mm 2 mps 645 mmHg 70%
    11:00 +7°C° 0.2 mm 2 mps 645 mmHg 70%
    12:00 +8°C° 0.2 mm 2 mps 645 mmHg 70%
    13:00 +8°C° 0 mm 2 mps 644 mmHg 69%
    14:00 +10°C° 0 mm 1 mps 644 mmHg 69%
    15:00 +10°C° 0 mm 1 mps 644 mmHg 69%
    16:00 +8°C° 0 mm 2 mps 643 mmHg 71%
    17:00 +6°C° 0 mm 2 mps 643 mmHg 74%
    18:00 +5°C° 0 mm 2 mps 642 mmHg 76%
    19:00 +5°C° 0.4 mm 2 mps 643 mmHg 77%
    20:00 +6°C° 0.4 mm 2 mps 643 mmHg 77%
    21:00 +6°C° 0.4 mm 2 mps 643 mmHg 77%
    22:00 +6°C° 0.8 mm 2 mps 643 mmHg 79%
    23:00 +6°C° 0.8 mm 2 mps 643 mmHg 82%

    Day after tomorrow, 25 November, Saturday

    Time Temperature Precipitation Wind Pressure Humidity
    00:00 +6°C° 0.8 mm 2 mps 643 mmHg 84%
    01:00 +5°C° 1.8 mm 2 mps 643 mmHg 88%
    02:00 +4°C° 1.8 mm 2 mps 643 mmHg 91%
    03:00 +3°C° 1.8 mm 3 mps 643 mmHg 94%
    04:00 +3°C° 1.4 mm 3 mps 643 mmHg 94%
    05:00 +2°C° 1.4 mm 3 mps 643 mmHg 94%
    06:00 +2°C° 1.4 mm 3 mps 644 mmHg 94%
    07:00 +2°C° 0.4 mm 3 mps 644 mmHg 91%
    08:00 +2°C° 0.4 mm 3 mps 645 mmHg 88%
    09:00 +3°C° 0.4 mm 3 mps 645 mmHg 84%
    10:00 +3°C° 0.1 mm 4 mps 646 mmHg 80%
    11:00 +3°C° 0.1 mm 4 mps 646 mmHg 75%
    12:00 +3°C° 0.1 mm 4 mps 647 mmHg 70%
    13:00 +3°C° 0.1 mm 4 mps 647 mmHg 71%
    14:00 +1°C° 0.1 mm 4 mps 647 mmHg 71%
    15:00 +2°C° 0.1 mm 3 mps 647 mmHg 71%
    16:00 0°C° 0.1 mm 3 mps 647 mmHg 75%
    17:00 -1°C° 0.1 mm 3 mps 647 mmHg 78%
    18:00 -2°C° 0.1 mm 2 mps 647 mmHg 82%
    19:00 -2°C° 0 mm 2 mps 647 mmHg 81%
    20:00 -3°C° 0 mm 2 mps 647 mmHg 80%
    21:00 -3°C° 0 mm 2 mps 648 mmHg 79%
    22:00 -4°C° 0 mm 2 mps 648 mmHg 78%
    23:00 -4°C° 0 mm 2 mps 648 mmHg 77%

    26 November, Sunday

    Time Temperature Precipitation Wind Pressure Humidity
    00:00 -4°C° 0 mm 2 mps 648 mmHg 75%
    01:00 -4°C° 0 mm 2 mps 648 mmHg 75%
    02:00 -4°C° 0 mm 2 mps 648 mmHg 74%
    03:00 -4°C° 0 mm 2 mps 648 mmHg 73%
    04:00 -5°C° 0 mm 2 mps 648 mmHg 72%
    05:00 -5°C° 0 mm 2 mps 648 mmHg 70%
    06:00 -5°C° 0 mm 2 mps 648 mmHg 69%
    07:00 -2°C° 0 mm 1 mps 649 mmHg 64%
    08:00 -1°C° 0 mm 1 mps 650 mmHg 59%
    09:00 +1°C° 0 mm 1 mps 651 mmHg 54%
    10:00 +2°C° 0 mm 1 mps 651 mmHg 50%
    11:00 +3°C° 0 mm 1 mps 651 mmHg 45%
    12:00 +4°C° 0 mm 1 mps 651 mmHg 41%
    13:00 +4°C° 0 mm 1 mps 651 mmHg 42%
    14:00 +4°C° 0 mm 1 mps 651 mmHg 44%
    15:00 +3°C° 0 mm 1 mps 650 mmHg 45%
    16:00 +2°C° 0 mm 1 mps 650 mmHg 50%
    17:00 0°C° 0 mm 1 mps 649 mmHg 55%
    18:00 -4°C° 0 mm 2 mps 649 mmHg 60%
    19:00 -4°C° 0 mm 2 mps 649 mmHg 59%
    20:00 -4°C° 0 mm 2 mps 649 mmHg 57%
    21:00 -2°C° 0 mm 1 mps 649 mmHg 56%
    22:00 -2°C° 0 mm 1 mps 649 mmHg 55%
    23:00 -2°C° 0 mm 1 mps 649 mmHg 54%

    27 November, Monday

    Time Temperature Precipitation Wind Pressure Humidity
    00:00 -2°C° 0 mm 1 mps 649 mmHg 54%
    01:00 -3°C° 0 mm 1 mps 648 mmHg 54%
    02:00 -3°C° 0 mm 1 mps 648 mmHg 54%
    03:00 -3°C° 0 mm 1 mps 648 mmHg 54%
    04:00 -2°C° 0 mm 1 mps 648 mmHg 54%
    05:00 -2°C° 0 mm 1 mps 648 mmHg 54%
    06:00 -2°C° 0 mm 1 mps 648 mmHg 54%
    07:00 -1°C° 0 mm 1 mps 648 mmHg 51%
    08:00 0°C° 0 mm 1 mps 649 mmHg 49%
    09:00 +1°C° 0 mm 1 mps 649 mmHg 47%
    10:00 +2°C° 0 mm 1 mps 649 mmHg 44%
    11:00 +4°C° 0 mm 1 mps 649 mmHg 42%
    12:00 +5°C° 0 mm 1 mps 649 mmHg 40%
    13:00 +4°C° 0 mm 1 mps 648 mmHg 44%
    14:00 +4°C° 0 mm 1 mps 648 mmHg 47%
    15:00 +4°C° 0 mm 1 mps 647 mmHg 50%
    16:00 +2°C° 0 mm 1 mps 647 mmHg 56%
    17:00 0°C° 0 mm 1 mps 646 mmHg 61%
    18:00 -1°C° 0 mm 1 mps 646 mmHg 67%
    19:00 -2°C° 0 mm 1 mps 646 mmHg 66%
    20:00 -2°C° 0 mm 1 mps 646 mmHg 65%
    21:00 -2°C° 0 mm 1 mps 646 mmHg 64%
    22:00 -2°C° 0 mm 1 mps 646 mmHg 63%
    23:00 -2°C° 0 mm 1 mps 646 mmHg 62%

    28 November, Tuesday

    Time Temperature Precipitation Wind Pressure Humidity
    00:00 -2°C° 0 mm 1 mps 645 mmHg 60%
    01:00 -2°C° 0 mm 1 mps 645 mmHg 59%
    02:00 -2°C° 0 mm 1 mps 645 mmHg 58%
    03:00 -2°C° 0 mm 1 mps 644 mmHg 57%
    04:00 -2°C° 0 mm 1 mps 644 mmHg 56%
    05:00 -2°C° 0 mm 1 mps 644 mmHg 55%
    06:00 -2°C° 0 mm 1 mps 644 mmHg 54%
    07:00 -1°C° 0 mm 1 mps 644 mmHg 51%
    08:00 +1°C° 0 mm 1 mps 644 mmHg 47%
    09:00 +2°C° 0 mm 1 mps 645 mmHg 44%
    10:00 +4°C° 0 mm 1 mps 645 mmHg 42%
    11:00 +5°C° 0 mm 1 mps 644 mmHg 40%
    12:00 +6°C° 0 mm 1 mps 644 mmHg 37%
    13:00 +6°C° 0 mm 1 mps 644 mmHg 41%
    14:00 +5°C° 0 mm 1 mps 643 mmHg 45%
    15:00 +5°C° 0 mm 1 mps 642 mmHg 49%
    16:00 +3°C° 0 mm 1 mps 642 mmHg 54%
    17:00 +1°C° 0 mm 1 mps 641 mmHg 59%
    18:00 0°C° 0 mm 1 mps 640 mmHg 63%
    19:00 0°C° 0 mm 1 mps 640 mmHg 63%
    20:00 -1°C° 0 mm 1 mps 640 mmHg 63%
    21:00 -1°C° 0 mm 1 mps 640 mmHg 62%
    22:00 -1°C° 0 mm 1 mps 639 mmHg 61%
    23:00 -3°C° 0 mm 2 mps 639 mmHg 61%
    Show more